Location: Raleigh
(35.7720°N, 78.6390°W)
Time: 01:47:49
(UTC-04:00)

Amateur Radio Satellites - All Passes

Search period start: 27 June 2016 01:17
Search period end: 28 June 2016 01:17
Location: Raleigh, 35.7720°N, 78.6390°W

Satellite Date Start Highest point End Downlink Frequencies (MHz)
Time Altitude Azimuth
SO-50 27 Jun 01:18:20 01:22:26 29° 52° (NE) 01:26:23 436.795
BUGSAT 1 27 Jun 01:28:49 01:32:54 78° 284° (WNW) 01:37:02 437.445
Cosmos 2504 27 Jun 01:29:46 01:38:11 45° 76° (ENE) 01:46:14 435.465 / 435.565
CUBEBUG 1 27 Jun 01:32:57 01:34:19 11° 268° (W) 01:35:41 437.445
VELOX 1 27 Jun 01:35:31 01:37:06 12° 268° (W) 01:38:40 145.980
NANOSAT C BR1 27 Jun 01:39:05 01:42:31 24° 290° (WNW) 01:45:57 145.865
QB50P1 27 Jun 01:41:01 01:44:20 22° 290° (WNW) 01:47:38 145.935-145.965
POPSAT HIP 1 27 Jun 01:44:08 01:47:20 21° 291° (WNW) 01:50:33 437.405
SWISSCUBE 27 Jun 01:52:18 01:56:01 23° 68° (ENE) 01:59:46 437.505
QB50P2 27 Jun 01:56:40 01:59:02 15° 293° (WNW) 02:01:24 145.880/145.840
POLYITAN 1 27 Jun 01:59:20 02:01:39 14° 293° (WNW) 02:03:58 437.675
DUCHIFAT 1 27 Jun 02:01:29 02:03:56 15° 293° (WNW) 02:06:23 145.980
JAS-2 27 Jun 02:04:49 02:10:29 87° 282° (WNW) 02:15:42 435.910
Cosmos 2491 27 Jun 02:06:33 02:15:13 63° 280° (W) 02:23:54 435.465 / 435.565
ITUPSAT 1 27 Jun 02:16:48 02:21:10 36° 71° (ENE) 02:25:33 437.325
BEESAT 27 Jun 02:17:04 02:21:25 37° 71° (ENE) 02:25:50 436.000
TISAT 1 27 Jun 02:21:30 02:25:09 30° 262° (W) 02:28:50 437.305
PCSat 27 Jun 02:28:49 02:33:53 43° 111° (ESE) 02:39:00 145.827
BEESAT 3 27 Jun 02:41:25 02:44:35 24° 112° (ESE) 02:47:46 437.485
Oscar 19 27 Jun 02:50:52 02:56:01 83° 285° (WNW) 03:01:08 437.125/150
Gurwin Techsat 1B 27 Jun 02:52:32 02:57:34 41° 99° (E) 03:02:33 435.225
SO-50 27 Jun 02:58:58 03:02:46 26° 249° (WSW) 03:06:28 436.795
YUBILEINY 27 Jun 03:01:21 03:05:59 16° 282° (WNW) 03:10:38 435.215
ITAMSAT 1 27 Jun 03:10:11 03:14:01 20° 94° (E) 03:17:50 435.822/435.867
MOZHAYETS 4 27 Jun 03:15:02 03:17:36 15° 66° (ENE) 03:20:09
BEESAT 2 27 Jun 03:15:05 03:18:36 31° 113° (ESE) 03:22:08 435.950
O/OREOS (USA 219) 27 Jun 03:20:10 03:24:35 59° 107° (ESE) 03:29:00 437.305
Cosmos 2504 27 Jun 03:23:28 03:31:18 37° 274° (W) 03:38:50 435.465 / 435.565
SWISSCUBE 27 Jun 03:29:20 03:33:36 32° 262° (W) 03:37:55 437.505
KKS-1 27 Jun 03:37:02 03:40:49 28° 70° (ENE) 03:44:37 437.445
ITUPSAT 1 27 Jun 03:55:33 03:59:03 20° 265° (W) 04:02:35 437.325
BEESAT 27 Jun 03:55:52 03:59:17 19° 266° (W) 04:02:43 436.000
PCSat 27 Jun 04:13:04 04:17:26 24° 307° (NW) 04:21:50 145.827
STARS 27 Jun 04:14:02 04:18:01 36° 72° (ENE) 04:22:00 437.465
BEESAT 3 27 Jun 04:18:58 04:22:10 24° 307° (NW) 04:25:24 437.485
Gurwin Techsat 1B 27 Jun 04:33:12 04:37:12 22° 294° (WNW) 04:41:10 435.225
CUBESAT XI-V 27 Jun 04:38:02 04:40:11 13° 65° (ENE) 04:42:20 437.345
AO-7 27 Jun 04:46:51 04:55:08 61° 104° (ESE) 05:03:21 29.400- 29.500
ITAMSAT 1 27 Jun 04:48:43 04:53:36 42° 289° (WNW) 04:58:29 435.822/435.867
MOZHAYETS 4 27 Jun 04:49:51 04:54:18 48° 261° (W) 04:58:48
BEESAT 2 27 Jun 04:53:34 04:56:28 19° 309° (NW) 04:59:24 435.950
AIST 1 27 Jun 04:55:36 04:59:48 58° 82° (E) 05:03:59
HORYU 2 27 Jun 04:57:50 04:59:37 12° 92° (E) 05:01:23 437.375
O/OREOS (USA 219) 27 Jun 05:02:32 05:04:22 12° 303° (WNW) 05:06:12 437.305
GONETS M04 27 Jun 05:03:47 05:10:07 22° 69° (ENE) 05:16:25
KKS-1 27 Jun 05:13:56 05:17:21 22° 264° (W) 05:20:46 437.445
AIST 2 27 Jun 05:19:21 05:23:09 37° 114° (ESE) 05:26:58 435.215
STARS 27 Jun 05:51:40 05:54:27 17° 266° (W) 05:57:14 437.465
Cosmos 2499 27 Jun 06:11:35 06:19:44 40° 75° (ENE) 06:27:23 435.465 / 435.565
NOAA 15 27 Jun 06:11:50 06:15:03 16° 93° (E) 06:18:14 137.62
BRITE-PL 27 Jun 06:11:53 06:13:22 12° 92° (E) 06:14:52 437.365/2234.400
CUBESAT XI-V 27 Jun 06:12:24 06:17:02 57° 260° (W) 06:21:41 437.345
NOAA 18 27 Jun 06:22:42 06:26:12 17° 93° (E) 06:29:42 137.9125
HORYU 2 27 Jun 06:32:03 06:36:26 52° 286° (WNW) 06:40:47 437.375
AO-7 27 Jun 06:40:32 06:47:19 29° 301° (WNW) 06:54:06 29.400- 29.500
Cubesat XI-IV 27 Jun 06:41:48 06:46:05 24° 95° (E) 06:50:19 437.490
CUSAT 1 27 Jun 06:44:41 06:49:18 17° 86° (E) 06:53:37 437.405
AO-85 27 Jun 06:49:33 06:53:12 24° 50° (NE) 06:56:37 145.980
STRAND 1 27 Jun 06:51:39 06:55:48 25° 68° (ENE) 06:59:58 437.568
GOMX 1 27 Jun 06:53:20 06:55:59 16° 94° (E) 06:58:41 467.674
AIST 2 27 Jun 06:58:52 07:01:45 18° 310° (NW) 07:04:39 435.215
GONETS M04 27 Jun 06:59:00 07:07:40 72° 267° (W) 07:16:21
LilacSat-2 27 Jun 07:02:44 07:06:18 34° 98° (E) 07:09:51 437.200
PHONESAT 2.4 27 Jun 07:06:14 07:08:51 26° 148° (SSE) 07:11:27 2401.200-2431.200
CUTE-I 27 Jun 07:16:00 07:21:15 52° 100° (E) 07:26:27 437.470
BRITE-PL 27 Jun 07:48:10 07:52:06 43° 286° (WNW) 07:56:03 437.365/2234.400
NOAA 15 27 Jun 07:50:00 07:55:05 52° 288° (WNW) 08:00:08 137.62
HO-68 27 Jun 07:58:36 08:03:01 17° 92° (E) 08:07:24 435.675
DOVE 4 27 Jun 08:00:54 08:05:03 44° 100° (E) 08:09:25 437.250
NOAA 18 27 Jun 08:01:44 08:07:08 55° 288° (WNW) 08:12:33 137.9125
Cosmos 2499 27 Jun 08:04:50 08:12:43 40° 274° (W) 08:20:11 435.465 / 435.565
Cubesat XI-IV 27 Jun 08:21:15 08:26:12 38° 290° (WNW) 08:31:06 437.490
CUSAT 1 27 Jun 08:22:47 08:30:49 84° 278° (W) 08:37:49 437.405
PRISM 27 Jun 08:24:16 08:27:54 29° 71° (ENE) 08:31:31 437.425
DANDE 27 Jun 08:29:19 08:37:28 59° 93° (E) 08:45:21 436.750
AO-85 27 Jun 08:29:54 08:33:37 28° 249° (WSW) 08:37:05 145.980
STRAND 1 27 Jun 08:30:10 08:34:46 33° 262° (W) 08:39:25 437.568
GOMX 1 27 Jun 08:30:21 08:34:09 34° 287° (WNW) 08:38:05 467.674
LilacSat-2 27 Jun 08:38:11 08:40:16 14° 292° (WNW) 08:42:22 437.200
PHONESAT 2.4 27 Jun 08:42:18 08:45:19 58° 343° (NNW) 08:48:22 2401.200-2431.200
CANX-2 27 Jun 08:54:08 08:58:19 48° 100° (E) 09:02:25 2200.000
CUTE-I 27 Jun 08:57:16 09:00:49 18° 295° (WNW) 09:04:23 437.470
GONETS M04 27 Jun 09:02:01 09:02:48 10° 285° (WNW) 09:03:36
COMPASS 1 27 Jun 09:02:49 09:06:16 24° 96° (E) 09:09:42 437.405
CINEMA 3 27 Jun 09:08:21 09:12:54 73° 101° (E) 09:17:40 145.822/145.860
CUTE 1.7 + AOD 2 27 Jun 09:14:22 09:18:40 75° 102° (ESE) 09:22:54 437.475
CUBEBUG 2 27 Jun 09:17:01 09:20:55 26° 96° (E) 09:24:51 437.445
SEEDS 27 Jun 09:21:22 09:25:36 62° 101° (E) 09:29:45 437.485
ISS 27 Jun 09:26:01 09:29:16 81° 137° (SE) 09:32:32 145.825
DOVE 4 27 Jun 09:40:05 09:42:26 14° 292° (WNW) 09:44:50 437.250
HO-68 27 Jun 09:44:07 09:51:19 76° 287° (WNW) 09:58:29 435.675
ZACube-1 27 Jun 09:50:27 09:54:19 27° 96° (E) 09:58:12 437.345
PRISM 27 Jun 10:00:16 10:03:11 18° 265° (W) 10:06:08 437.425
AUBIESAT-1 27 Jun 10:00:24 10:04:07 37° 104° (ESE) 10:08:04 437.475
Oscar 11 27 Jun 10:03:20 10:07:25 38° 98° (E) 10:11:28 145.826/435.025
AAUSAT CUBESAT 2 27 Jun 10:05:09 10:09:19 70° 283° (WNW) 10:13:25 437.432
UWE-3 27 Jun 10:07:17 10:11:53 66° 101° (ESE) 10:16:30 435.000/436.395/437.385
FUNcube-1 27 Jun 10:08:35 10:12:53 40° 98° (E) 10:17:11 145.935
CUSAT 1 27 Jun 10:09:33 10:13:26 14° 291° (WNW) 10:17:05 437.405
DANDE 27 Jun 10:13:29 10:20:34 30° 288° (WNW) 10:27:24 436.750
TIGRISAT 27 Jun 10:15:18 10:19:00 29° 71° (ENE) 10:22:46 435.000
RS-15 27 Jun 10:15:34 10:18:28 11° 95° (E) 10:21:22 29.354- 29.394
PHONESAT 2.4 27 Jun 10:19:26 10:22:15 31° 360° (N) 10:25:03 2401.200-2431.200
UNISAT 6 27 Jun 10:19:40 10:23:34 35° 72° (ENE) 10:27:32 437.425
DELFI C3 27 Jun 10:30:14 10:33:52 33° 97° (E) 10:37:27 145.870
CANX-2 27 Jun 10:31:47 10:33:41 13° 294° (WNW) 10:35:36 2200.000
M-CUBED/EXP-1 PRIME 27 Jun 10:38:14 10:42:03 57° 290° (WNW) 10:46:11 437.505
COMPASS 1 27 Jun 10:38:25 10:41:41 22° 290° (WNW) 10:44:57 437.405
CUBEBUG 2 27 Jun 10:53:35 10:57:25 26° 289° (WNW) 11:01:18 437.445
NANOSAT C BR1 27 Jun 10:54:30 10:56:17 13° 66° (ENE) 10:58:04 145.865
QB50P1 27 Jun 10:56:10 10:58:20 14° 67° (ENE) 11:00:31 145.935-145.965
POPSAT HIP 1 27 Jun 10:59:02 11:01:23 15° 67° (ENE) 11:03:44 437.405
ANTELSAT 27 Jun 10:59:06 11:03:22 77° 258° (WSW) 11:07:45 437.575/2403.000
ISS 27 Jun 11:04:19 11:06:05 14° 334° (NNW) 11:07:51 145.825
QB50P2 27 Jun 11:09:59 11:13:11 22° 69° (ENE) 11:16:24 145.880/145.840
POLYITAN 1 27 Jun 11:12:35 11:15:49 22° 69° (ENE) 11:19:03 437.675
DUCHIFAT 1 27 Jun 11:14:25 11:17:27 20° 69° (ENE) 11:20:31 145.980
HUMSAT D 27 Jun 11:16:43 11:20:58 56° 100° (E) 11:25:11 437.325/437.525
PCSat 27 Jun 11:20:05 11:24:05 21° 51° (NE) 11:28:04 145.827
ZACube-1 27 Jun 11:26:45 11:30:27 25° 290° (WNW) 11:34:10 437.345
HO-68 27 Jun 11:34:58 11:37:49 13° 305° (NW) 11:40:40 435.675
AUBIESAT-1 27 Jun 11:35:57 11:38:20 16° 295° (WNW) 11:40:50 437.475
Oscar 11 27 Jun 11:40:31 11:43:12 16° 293° (WNW) 11:45:52 145.826/435.025
FUNcube-1 27 Jun 11:45:50 11:48:46 17° 292° (WNW) 11:51:42 145.935
UWE-3 27 Jun 11:46:25 11:47:46 11° 295° (WNW) 11:49:06 435.000/436.395/437.385
CUBEBUG 1 27 Jun 11:47:06 11:48:40 12° 92° (E) 11:50:13 437.445
VELOX 1 27 Jun 11:51:05 11:52:49 12° 92° (E) 11:54:31 145.980
TIGRISAT 27 Jun 11:52:36 11:55:42 20° 266° (W) 11:58:51 435.000
PHONESAT 2.4 27 Jun 11:56:08 11:59:11 54° 17° (NNE) 12:02:13 2401.200-2431.200
UNISAT 6 27 Jun 11:57:41 12:00:23 16° 267° (W) 12:03:07 437.425
YUBILEINY 27 Jun 12:05:37 12:11:23 20° 80° (E) 12:17:10 435.215
DELFI C3 27 Jun 12:06:02 12:08:24 15° 292° (WNW) 12:10:47 145.870
JAS-2 27 Jun 12:12:05 12:18:51 35° 68° (ENE) 12:25:08 435.910
BUGSAT 1 27 Jun 12:15:39 12:19:30 45° 74° (ENE) 12:23:20 437.445
RS-15 27 Jun 12:17:16 12:28:23 68° 113° (ESE) 12:40:09 29.354- 29.394
ESTCUBE 1 27 Jun 12:19:22 12:23:42 46° 99° (E) 12:28:00 437.505/2401.250
Cosmos 2491 27 Jun 12:20:25 12:29:00 58° 80° (E) 12:37:32 435.465 / 435.565
NANOSAT C BR1 27 Jun 12:27:33 12:31:34 47° 260° (W) 12:35:37 145.865
Oscar 19 27 Jun 12:29:34 12:31:15 12° 62° (ENE) 12:32:56 437.125/150
AISAT 27 Jun 12:29:42 12:33:47 37° 99° (E) 12:37:51 437.250
QB50P1 27 Jun 12:29:46 12:33:43 41° 261° (W) 12:37:43 145.935-145.965
POPSAT HIP 1 27 Jun 12:32:54 12:36:49 39° 261° (W) 12:40:44 437.405
BEESAT 3 27 Jun 12:37:52 12:41:49 77° 60° (ENE) 12:45:45 437.485
UKube-1 27 Jun 12:38:09 12:41:46 26° 97° (E) 12:45:23 .
SPROUT 27 Jun 12:42:46 12:46:00 21° 95° (E) 12:49:13 437.525
QB50P2 27 Jun 12:45:19 12:48:50 26° 264° (W) 12:52:22 145.880/145.840
POLYITAN 1 27 Jun 12:47:59 12:51:28 25° 264° (W) 12:54:58 437.675
DUCHIFAT 1 27 Jun 12:49:24 12:52:57 27° 263° (W) 12:56:33 145.980
HUMSAT D 27 Jun 12:54:40 12:56:03 11° 295° (WNW) 12:57:27 437.325/437.525
DX 1 27 Jun 12:54:49 12:59:04 53° 101° (E) 13:03:17 434.975-435.025
PCSat 27 Jun 13:02:31 13:07:47 53° 248° (WSW) 13:13:00 145.827
50 SAT 27 Jun 13:07:23 13:11:01 60° 284° (WNW) 13:14:37 437.505
BEESAT 2 27 Jun 13:12:50 13:16:50 79° 242° (WSW) 13:20:47 435.950
CUBEBUG 1 27 Jun 13:21:01 13:25:11 49° 286° (WNW) 13:29:21 437.445
VELOX 1 27 Jun 13:25:16 13:29:31 50° 286° (WNW) 13:33:45 145.980
O/OREOS (USA 219) 27 Jun 13:32:53 13:37:22 70° 69° (ENE) 13:41:50 437.305
PHONESAT 2.4 27 Jun 13:32:58 13:35:41 28° 211° (SSW) 13:38:24 2401.200-2431.200
AIST 2 27 Jun 13:44:39 13:46:30 13° 47° (NE) 13:48:22 435.215
BUGSAT 1 27 Jun 13:54:02 13:55:05 11° 268° (W) 13:56:08 437.445
JAS-2 27 Jun 13:56:18 14:03:37 44° 261° (W) 14:10:29 435.910
AO-7 27 Jun 13:56:28 13:59:24 12° 49° (NE) 14:02:21 29.400- 29.500
ESTCUBE 1 27 Jun 13:57:36 14:00:05 15° 294° (WNW) 14:02:34 437.505/2401.250
YUBILEINY 27 Jun 13:58:29 14:07:10 74° 278° (W) 14:15:56 435.215
Cosmos 2504 27 Jun 14:04:16 14:11:27 38° 86° (E) 14:19:05 435.465 / 435.565
Oscar 19 27 Jun 14:04:43 14:09:52 77° 257° (WSW) 14:15:02 437.125/150
AISAT 27 Jun 14:07:06 14:09:57 17° 293° (WNW) 14:12:46 437.250
TISAT 1 27 Jun 14:07:34 14:11:39 48° 100° (E) 14:15:43 437.305
Gurwin Techsat 1B 27 Jun 14:10:41 14:15:48 50° 72° (ENE) 14:20:55 435.225
UKube-1 27 Jun 14:14:18 14:17:40 23° 291° (WNW) 14:21:02 .
SPROUT 27 Jun 14:18:15 14:21:55 28° 289° (WNW) 14:25:35 437.525
Cosmos 2491 27 Jun 14:18:23 14:25:10 26° 277° (W) 14:31:58 435.465 / 435.565
BEESAT 27 Jun 14:22:12 14:23:50 12° 92° (E) 14:25:27 436.000
ITUPSAT 1 27 Jun 14:22:26 14:23:56 11° 91° (E) 14:25:27 437.325
ITAMSAT 1 27 Jun 14:25:24 14:29:30 24° 67° (ENE) 14:33:38 435.822/435.867
RS-15 27 Jun 14:31:24 14:41:42 36° 317° (NW) 14:52:33 29.354- 29.394
DX 1 27 Jun 14:33:05 14:34:45 12° 295° (WNW) 14:36:25 434.975-435.025
AIST 2 27 Jun 15:21:16 15:25:22 62° 244° (WSW) 15:29:28 435.215
JUGNU 27 Jun 15:28:07 15:29:20 11° 166° (SSE) 15:30:34 437.505
SO-50 27 Jun 15:30:23 15:33:49 19° 109° (ESE) 15:37:15 436.795
SWISSCUBE 27 Jun 15:31:42 15:36:31 80° 102° (ESE) 15:41:17 437.505
AO-7 27 Jun 15:42:21 15:50:31 64° 68° (ENE) 15:58:45 29.400- 29.500
TISAT 1 27 Jun 15:45:03 15:46:52 13° 294° (WNW) 15:48:39 437.305
Gurwin Techsat 1B 27 Jun 15:52:33 15:55:59 17° 267° (W) 15:59:25 435.225
ISS 27 Jun 15:56:18 15:59:09 27° 34° (NE) 16:01:59 145.825
BEESAT 27 Jun 15:57:14 16:01:58 61° 286° (WNW) 16:06:39 436.000
Cosmos 2504 27 Jun 15:57:15 16:04:39 40° 285° (WNW) 16:12:36 435.465 / 435.565
ITUPSAT 1 27 Jun 15:57:23 16:02:08 62° 286° (WNW) 16:06:52 437.325
YUBILEINY 27 Jun 16:02:32 16:05:33 12° 298° (WNW) 16:08:35 435.215
ITAMSAT 1 27 Jun 16:03:59 16:08:44 36° 262° (W) 16:13:32 435.822/435.867
MOZHAYETS 4 27 Jun 16:47:36 16:52:06 48° 99° (E) 16:56:32
RS-15 27 Jun 16:53:09 16:59:29 15° 350° (N) 17:05:56 29.354- 29.394
KKS-1 27 Jun 17:06:21 17:10:49 87° 99° (E) 17:15:17 437.445
SO-50 27 Jun 17:09:17 17:13:58 44° 304° (NW) 17:18:39 436.795
JUGNU 27 Jun 17:14:00 17:17:34 16° 176° (S) 17:21:08 437.505
BRITE-PL 27 Jun 17:19:39 17:22:13 14° 67° (ENE) 17:24:43 437.365/2234.400
AIST 1 27 Jun 17:21:47 17:25:49 39° 92° (E) 17:29:51
HORYU 2 27 Jun 17:26:48 17:31:13 83° 258° (WSW) 17:35:40 437.375
NOAA 15 27 Jun 17:29:00 17:32:52 21° 66° (ENE) 17:36:45 137.62
ISS 27 Jun 17:32:46 17:35:31 25° 229° (SW) 17:38:16 145.825
AO-7 27 Jun 17:37:14 17:43:43 25° 264° (W) 17:50:15 29.400- 29.500
STARS 27 Jun 17:41:54 17:46:18 76° 284° (WNW) 17:50:41 437.465
LilacSat-2 27 Jun 17:44:00 17:45:25 12° 67° (ENE) 17:46:50 437.200
NOAA 18 27 Jun 17:45:55 17:50:17 25° 66° (ENE) 17:54:42 137.9125
GOMX 1 27 Jun 17:59:31 18:02:02 15° 68° (ENE) 18:04:27 467.674
Cubesat XI-IV 27 Jun 18:00:56 18:05:31 30° 68° (ENE) 18:10:07 437.490
GONETS M04 27 Jun 18:01:38 18:08:32 27° 83° (E) 18:15:23
CUBESAT XI-V 27 Jun 18:11:56 18:16:20 42° 99° (E) 18:20:41 437.345
MOZHAYETS 4 27 Jun 18:26:12 18:28:49 15° 294° (WNW) 18:31:26
SRMSAT 27 Jun 18:27:06 18:29:50 13° 170° (S) 18:32:36 437.500
CUTE-I 27 Jun 18:34:51 18:40:07 64° 74° (ENE) 18:45:26 437.470
Cosmos 2499 27 Jun 18:44:07 18:51:15 34° 85° (E) 18:58:46 435.465 / 435.565
BRITE-PL 27 Jun 18:55:10 19:00:18 58° 259° (W) 19:05:04 437.365/2234.400
AIST 1 27 Jun 19:01:18 19:03:34 14° 287° (WNW) 19:05:52
JUGNU 27 Jun 19:02:25 19:05:50 16° 186° (S) 19:09:14 437.505
DOVE 4 27 Jun 19:04:06 19:07:58 31° 72° (ENE) 19:11:41 437.250
CUSAT 1 27 Jun 19:04:09 19:07:30 37° 75° (ENE) 19:10:15 437.405
NOAA 15 27 Jun 19:07:17 19:12:19 43° 261° (W) 19:17:21 137.62
RS-15 27 Jun 19:10:18 19:19:03 21° 28° (NNE) 19:27:49 29.354- 29.394
LilacSat-2 27 Jun 19:15:47 19:19:19 39° 262° (W) 19:22:54 437.200
DANDE 27 Jun 19:16:17 19:20:04 22° 68° (ENE) 19:23:07 436.750
NOAA 18 27 Jun 19:25:41 19:30:42 38° 261° (W) 19:35:47 137.9125
GOMX 1 27 Jun 19:35:13 19:39:47 46° 260° (W) 19:44:05 467.674
Cubesat XI-IV 27 Jun 19:40:51 19:45:29 30° 263° (W) 19:50:09 437.490
CANX-2 27 Jun 19:44:25 19:47:52 24° 70° (ENE) 19:51:19 2200.000
CUBESAT XI-V 27 Jun 19:50:27 19:53:19 16° 293° (WNW) 19:56:10 437.345
COMPASS 1 27 Jun 19:52:23 19:54:10 12° 66° (ENE) 19:55:56 437.405
GONETS M04 27 Jun 19:56:13 20:04:43 57° 281° (W) 20:13:15
CUTE 1.7 + AOD 2 27 Jun 20:04:08 20:08:01 35° 72° (ENE) 20:11:56 437.475
CINEMA 3 27 Jun 20:07:38 20:11:34 43° 74° (ENE) 20:15:30 145.822/145.860
HO-68 27 Jun 20:09:02 20:16:02 61° 71° (ENE) 20:23:05 435.675
SEEDS 27 Jun 20:10:22 20:14:02 29° 71° (ENE) 20:17:44 437.485
CUBEBUG 2 27 Jun 20:13:57 20:16:10 14° 67° (ENE) 20:18:25 437.445
SRMSAT 27 Jun 20:14:36 20:18:14 17° 180° (S) 20:21:51 437.500
CUTE-I 27 Jun 20:18:02 20:20:34 13° 268° (W) 20:23:06 437.470
Cosmos 2499 27 Jun 20:36:15 20:44:01 46° 284° (WNW) 20:52:20 435.465 / 435.565
DOVE 4 27 Jun 20:42:39 20:45:41 18° 265° (W) 20:48:39 437.250
STRAND 1 27 Jun 20:42:56 20:48:06 79° 284° (WNW) 20:53:13 437.568
ZACube-1 27 Jun 20:44:56 20:47:11 14° 66° (ENE) 20:49:27 437.345
AUBIESAT-1 27 Jun 20:45:07 20:47:48 23° 67° (ENE) 20:50:30 437.475
AAUSAT CUBESAT 2 27 Jun 20:52:09 20:56:11 50° 75° (ENE) 21:00:15 437.432
Oscar 11 27 Jun 20:55:46 20:59:03 22° 69° (ENE) 21:02:22 145.826/435.025
DANDE 27 Jun 20:59:19 21:02:41 20° 276° (W) 21:05:27 436.750
AO-85 27 Jun 21:00:47 21:04:34 19° 109° (ESE) 21:08:19 145.980
UWE-3 27 Jun 21:01:49 21:05:34 34° 72° (ENE) 21:09:26 435.000/436.395/437.385
FUNcube-1 27 Jun 21:02:04 21:05:13 21° 69° (ENE) 21:08:25 145.935
DELFI C3 27 Jun 21:14:40 21:16:50 14° 67° (ENE) 21:18:59 145.870
CANX-2 27 Jun 21:20:07 21:23:36 24° 265° (W) 21:27:07 2200.000
RS-15 27 Jun 21:22:28 21:34:45 63° 55° (NE) 21:46:49 29.354- 29.394
M-CUBED/EXP-1 PRIME 27 Jun 21:22:56 21:26:13 68° 253° (WSW) 21:29:28 437.505
COMPASS 1 27 Jun 21:25:12 21:29:16 48° 261° (W) 21:33:22 437.405
CUTE 1.7 + AOD 2 27 Jun 21:41:15 21:43:56 16° 267° (W) 21:46:39 437.475
PRISM 27 Jun 21:43:11 21:47:16 73° 102° (ESE) 21:51:18 437.425
SEEDS 27 Jun 21:46:39 21:49:43 19° 266° (W) 21:52:49 437.485
CINEMA 3 27 Jun 21:47:22 21:48:56 12° 268° (W) 21:50:29 145.822/145.860
CUBEBUG 2 27 Jun 21:48:32 21:52:25 39° 262° (W) 21:56:23 437.445
HO-68 27 Jun 21:58:53 22:04:07 22° 266° (W) 22:09:25 435.675
SRMSAT 27 Jun 22:03:57 22:06:37 13° 190° (S) 22:09:17 437.500
HUMSAT D 27 Jun 22:05:29 22:08:57 26° 70° (ENE) 22:12:27 437.325/437.525
ZACube-1 27 Jun 22:19:08 22:23:04 41° 262° (W) 22:27:06 437.345
AUBIESAT-1 27 Jun 22:20:35 22:22:20 14° 260° (W) 22:24:04 437.475
AAUSAT CUBESAT 2 27 Jun 22:30:48 22:31:55 11° 268° (W) 22:33:03 437.432
Oscar 11 27 Jun 22:31:17 22:35:00 28° 264° (W) 22:38:45 145.826/435.025
FUNcube-1 27 Jun 22:37:46 22:41:17 26° 264° (W) 22:44:53 145.935
AO-85 27 Jun 22:39:23 22:44:42 53° 303° (WNW) 22:49:53 145.980
UWE-3 27 Jun 22:39:37 22:42:09 16° 267° (W) 22:44:43 435.000/436.395/437.385
DELFI C3 27 Jun 22:47:34 22:51:19 37° 262° (W) 22:55:06 145.870
ANTELSAT 27 Jun 22:53:43 22:57:44 28° 96° (E) 23:01:45 437.575/2403.000
ESTCUBE 1 27 Jun 23:16:10 23:20:07 30° 71° (ENE) 23:24:04 437.505/2401.250
AISAT 27 Jun 23:24:40 23:28:12 24° 69° (ENE) 23:31:43 437.250
Cosmos 2491 27 Jun 23:29:11 23:30:56 11° 76° (ENE) 23:32:41 435.465 / 435.565
UKube-1 27 Jun 23:30:49 23:33:29 16° 67° (ENE) 23:36:10 .
SPROUT 27 Jun 23:35:30 23:36:54 11° 65° (ENE) 23:38:19 437.525
RS-15 27 Jun 23:35:52 23:46:32 36° 255° (WSW) 23:57:03 29.354- 29.394
HUMSAT D 27 Jun 23:41:21 23:44:30 21° 265° (W) 23:47:43 437.325/437.525
50 SAT 27 Jun 23:42:18 23:45:41 35° 73° (ENE) 23:49:06 437.505
TIGRISAT 27 Jun 23:45:06 23:49:46 81° 283° (WNW) 23:54:28 435.000
DX 1 27 Jun 23:47:37 23:51:29 32° 71° (ENE) 23:55:19 434.975-435.025
UNISAT 6 27 Jun 23:49:57 23:54:35 67° 285° (WNW) 23:59:15 437.425
Cosmos 2504 28 Jun 00:03:28 00:06:07 11° 61° (ENE) 00:08:45 435.465 / 435.565
YUBILEINY 28 Jun 00:12:19 00:20:50 49° 78° (ENE) 00:29:18 435.215
CUBEBUG 1 28 Jun 00:13:35 00:17:57 89° 257° (WSW) 00:22:19 437.445
NANOSAT C BR1 28 Jun 00:14:48 00:18:36 32° 98° (E) 00:22:25 145.865
QB50P1 28 Jun 00:17:10 00:21:06 36° 98° (E) 00:25:01 145.935-145.965
VELOX 1 28 Jun 00:19:13 00:23:38 83° 257° (WSW) 00:28:04 145.980
POPSAT HIP 1 28 Jun 00:20:15 00:24:14 38° 99° (E) 00:28:13 437.405
ANTELSAT 28 Jun 00:30:29 00:34:17 25° 290° (WNW) 00:38:06 437.575/2403.000
QB50P2 28 Jun 00:32:10 00:36:23 59° 101° (E) 00:40:36 145.880/145.840
POLYITAN 1 28 Jun 00:34:46 00:39:01 61° 101° (E) 00:43:14 437.675
DUCHIFAT 1 28 Jun 00:35:32 00:39:42 54° 100° (E) 00:43:51 145.980
ESTCUBE 1 28 Jun 00:53:25 00:56:53 22° 265° (W) 01:00:24 437.505/2401.250
TISAT 1 28 Jun 00:56:52 01:00:14 24° 70° (ENE) 01:03:36 437.305
AISAT 28 Jun 01:00:51 01:04:32 26° 263° (W) 01:08:14 437.250
UKube-1 28 Jun 01:05:11 01:09:12 38° 261° (W) 01:13:14 .
SPROUT 28 Jun 01:08:12 01:12:21 53° 260° (W) 01:16:31 437.525
